Location: Lombard
(41.8800°N, 88.0080°W)
Time: 00:27:30
(UTC-05:00)

Transit 2A - Pass Details

Date: 14 February 2023
Orbit: 591 x 964 km, 66.7° (Epoch: 20 March)

Event Time Altitude Azimuth Distance (km) Brightness Sun altitude
Rises 22:53:55 0° 330° (NNW) 3,548 9.9 -56.9°
Enters shadow 22:54:11 - 330° (NNW) 3,449 9.9 -56.9°
Reaches altitude 10° 22:56:24 10° 331° (NNW) 2,639 - -57.2°
Maximum altitude 23:02:40 82° 59° (ENE) 973 - -57.8°
Drops below altitude 10° 23:09:03 10° 148° (SSE) 2,689 - -58.3°
Sets 23:11:36 0° 149° (SSE) 3,620 - -58.6°
